EDW556 LOWL-LOWI

Flight info

Callsign EDW556
Flight time N/A
Altitude 27000
Route LIDSI1W LIDSI DCT NANIT NANIT2A
Aircraft A320/M-SDE2E3FGHIJ1RWXY/C

Departure

Time 2026-04-18 19:43
Airport Linz-Hörsching Airport (LOWL)

Arrival

Time N/A
Airport Innsbruck Airport (LOWI)
Time Latitude Longitude Altitude Speed Heading
2026-04-18 19:22 48.23842 14.19144 992 ft 0 kts 87°
2026-04-18 19:36 48.23842 14.19152 986 ft 3 kts 86°
2026-04-18 19:36 48.23830 14.19199 989 ft 7 kts 143°
2026-04-18 19:37 48.23769 14.19230 991 ft 10 kts 137°
2026-04-18 19:37 48.23761 14.19325 986 ft 9 kts 88°
2026-04-18 19:37 48.23763 14.19408 986 ft 7 kts 87°
2026-04-18 19:37 48.23765 14.19478 986 ft 6 kts 87°
2026-04-18 19:38 48.23767 14.19536 989 ft 5 kts 87°
2026-04-18 19:38 48.23741 14.19605 989 ft 10 kts 155°
2026-04-18 19:38 48.23683 14.19637 992 ft 8 kts 159°
2026-04-18 19:38 48.23633 14.19666 990 ft 7 kts 159°
2026-04-18 19:39 48.23592 14.19690 992 ft 6 kts 158°
2026-04-18 19:39 48.23524 14.19730 990 ft 13 kts 158°
2026-04-18 19:39 48.23443 14.19777 989 ft 12 kts 159°
2026-04-18 19:39 48.23372 14.19839 984 ft 11 kts 125°
2026-04-18 19:40 48.23364 14.19946 983 ft 10 kts 88°
2026-04-18 19:40 48.23368 14.20086 983 ft 20 kts 86°
2026-04-18 19:40 48.23378 14.20337 981 ft 28 kts 87°
2026-04-18 19:40 48.23369 14.20559 982 ft 15 kts 129°
2026-04-18 19:41 48.23377 14.20589 982 ft 4 kts 322°
2026-04-18 19:41 48.23383 14.20525 981 ft 0 kts 266°
2026-04-18 19:41 48.23383 14.20521 981 ft 8 kts 266°
2026-04-18 19:42 48.23376 14.20321 981 ft 61 kts 267°
2026-04-18 19:42 48.23367 14.20079 984 ft 88 kts 267°
2026-04-18 19:42 48.23320 14.18757 999 ft 160 kts 266°
2026-04-18 19:42 48.23271 14.16999 1545 ft 174 kts 268°
2026-04-18 19:43 48.23213 14.15174 2431 ft 180 kts 267°
2026-04-18 19:43 48.23141 14.13172 3088 ft 204 kts 267°
2026-04-18 19:43 48.23059 14.10936 3665 ft 225 kts 267°
2026-04-18 19:43 48.22970 14.08466 4058 ft 249 kts 267°
2026-04-18 19:44 48.22873 14.05783 4699 ft 263 kts 267°
2026-04-18 19:44 48.22770 14.03020 5541 ft 267 kts 267°
2026-04-18 19:44 48.22563 13.97399 7314 ft 273 kts 268°
2026-04-18 19:45 48.22458 13.94583 8183 ft 275 kts 268°
2026-04-18 19:45 48.22283 13.91704 9091 ft 279 kts 261°
2026-04-18 19:45 48.21675 13.88935 9983 ft 284 kts 246°
2026-04-18 19:45 48.20588 13.86418 10680 ft 296 kts 235°
2026-04-18 19:46 48.19277 13.83881 10944 ft 320 kts 234°
2026-04-18 19:46 48.17863 13.81170 11257 ft 339 kts 234°
2026-04-18 19:46 48.16388 13.78357 11883 ft 346 kts 234°
2026-04-18 19:46 48.14889 13.75512 12613 ft 351 kts 234°
2026-04-18 19:47 48.13369 13.72625 13340 ft 355 kts 234°
2026-04-18 19:47 48.11833 13.69704 14042 ft 360 kts 234°
2026-04-18 19:47 48.10279 13.66745 14663 ft 364 kts 234°
2026-04-18 19:47 48.08710 13.63750 15295 ft 367 kts 235°
2026-04-18 19:48 48.07126 13.60729 15881 ft 372 kts 235°
2026-04-18 19:48 48.05524 13.57685 16086 ft 373 kts 235°
2026-04-18 19:48 48.03911 13.54627 16597 ft 376 kts 235°
2026-04-18 19:48 48.02288 13.51554 17264 ft 378 kts 235°
2026-04-18 19:49 48.00653 13.48451 17891 ft 382 kts 235°
2026-04-18 19:49 47.99001 13.45316 18506 ft 386 kts 236°
2026-04-18 19:49 47.97338 13.42163 19061 ft 389 kts 235°
2026-04-18 19:49 47.95655 13.38985 19634 ft 391 kts 235°
2026-04-18 19:50 47.93984 13.35831 20203 ft 394 kts 235°
2026-04-18 19:50 47.92275 13.32614 20775 ft 397 kts 235°
2026-04-18 19:50 47.90553 13.29381 21342 ft 399 kts 235°
2026-04-18 19:50 47.88817 13.26123 21881 ft 402 kts 234°
2026-04-18 19:51 47.87073 13.22852 22090 ft 404 kts 235°
2026-04-18 19:51 47.85327 13.19581 22128 ft 403 kts 235°
2026-04-18 19:51 47.83586 13.16327 22135 ft 401 kts 234°
2026-04-18 19:51 47.81850 13.13084 22137 ft 400 kts 234°
2026-04-18 19:52 47.80114 13.09845 22169 ft 400 kts 234°
2026-04-18 19:52 47.78383 13.06610 22165 ft 400 kts 234°
2026-04-18 19:52 47.76649 13.03371 22165 ft 400 kts 234°
2026-04-18 19:52 47.74917 13.00136 22166 ft 400 kts 234°
2026-04-18 19:53 47.73182 12.96903 22165 ft 400 kts 234°
2026-04-18 19:53 47.71561 12.93564 22165 ft 396 kts 244°
2026-04-18 19:53 47.69036 12.86296 22158 ft 396 kts 246°
2026-04-18 19:54 47.67782 12.82654 22154 ft 396 kts 246°
2026-04-18 19:54 47.66955 12.80259 22036 ft 391 kts 246°
2026-04-18 19:54 47.65319 12.75543 21400 ft 386 kts 246°
2026-04-18 19:54 47.64092 12.72016 20904 ft 383 kts 246°
2026-04-18 19:55 47.62875 12.68520 20400 ft 381 kts 246°
2026-04-18 19:55 47.61661 12.65037 19909 ft 379 kts 245°
2026-04-18 19:55 47.60456 12.61591 19485 ft 375 kts 245°
2026-04-18 19:55 47.59262 12.58180 19017 ft 372 kts 245°
2026-04-18 19:56 47.58080 12.54791 18557 ft 369 kts 245°
2026-04-18 19:56 47.57282 12.52515 18213 ft 368 kts 245°
2026-04-18 19:56 47.56089 12.49178 17696 ft 365 kts 245°
2026-04-18 19:56 47.54911 12.45857 17190 ft 363 kts 245°
2026-04-18 19:57 47.53746 12.42554 16688 ft 361 kts 245°
2026-04-18 19:57 47.52609 12.39315 16194 ft 359 kts 245°
2026-04-18 19:57 47.51464 12.36050 15723 ft 357 kts 245°
2026-04-18 19:57 47.50334 12.32837 15493 ft 347 kts 245°
2026-04-18 19:58 47.49226 12.29692 15138 ft 343 kts 245°
2026-04-18 19:58 47.48127 12.26575 14653 ft 341 kts 246°
2026-04-18 19:58 47.47034 12.23479 14189 ft 339 kts 245°
2026-04-18 19:58 47.45947 12.20400 13748 ft 337 kts 246°
2026-04-18 19:59 47.44864 12.17340 13294 ft 334 kts 245°
2026-04-18 19:59 47.43789 12.14316 12856 ft 331 kts 245°
2026-04-18 19:59 47.42720 12.11316 12402 ft 328 kts 245°
2026-04-18 19:59 47.41662 12.08347 11962 ft 325 kts 245°
2026-04-18 20:00 47.40611 12.05398 11523 ft 323 kts 245°
2026-04-18 20:00 47.39570 12.02476 11106 ft 321 kts 245°
2026-04-18 20:00 47.38533 11.99574 10673 ft 318 kts 245°
2026-04-18 20:00 47.37504 11.96702 10254 ft 316 kts 244°
2026-04-18 20:01 47.36483 11.93852 9794 ft 313 kts 244°
2026-04-18 20:01 47.35469 11.91022 9503 ft 313 kts 244°
2026-04-18 20:01 47.34453 11.88182 9489 ft 314 kts 244°
2026-04-18 20:01 47.33450 11.85367 9490 ft 314 kts 245°
2026-04-18 20:02 47.32718 11.82357 9494 ft 312 kts 259°
2026-04-18 20:02 47.32292 11.79227 9486 ft 311 kts 259°
2026-04-18 20:02 47.31861 11.76101 9495 ft 312 kts 259°
2026-04-18 20:02 47.31422 11.72972 9499 ft 312 kts 259°
2026-04-18 20:03 47.30979 11.69845 9501 ft 312 kts 259°
2026-04-18 20:03 47.30451 11.66749 9498 ft 312 kts 256°
2026-04-18 20:03 47.29924 11.63663 9499 ft 310 kts 259°
2026-04-18 20:03 47.29502 11.60567 9275 ft 306 kts 260°
2026-04-18 20:04 47.29096 11.57491 8749 ft 306 kts 260°
2026-04-18 20:04 47.28677 11.54424 8225 ft 306 kts 259°
2026-04-18 20:04 47.28254 11.51361 7737 ft 304 kts 259°
2026-04-18 20:04 47.27833 11.48314 7249 ft 304 kts 259°
2026-04-18 20:05 47.27413 11.45271 6776 ft 302 kts 259°
2026-04-18 20:05 47.27002 11.42302 6630 ft 290 kts 258°
2026-04-18 20:05 47.26608 11.39463 6493 ft 276 kts 258°
2026-04-18 20:05 47.26231 11.36755 6372 ft 264 kts 258°
2026-04-18 20:06 47.25693 11.34286 6455 ft 240 kts 236°
2026-04-18 20:06 47.24565 11.32730 6569 ft 218 kts 204°
2026-04-18 20:06 47.23098 11.32331 6121 ft 220 kts 165°
2026-04-18 20:06 47.21758 11.33179 5841 ft 206 kts 122°
2026-04-18 20:07 47.21218 11.35179 5653 ft 240 kts 79°
2026-04-18 20:07 47.21871 11.37752 5500 ft 307 kts 54°
2026-04-18 20:07 47.23500 11.40138 5311 ft 338 kts 41°
2026-04-18 20:07 47.25057 11.42586 5160 ft 319 kts 54°
2026-04-18 20:08 47.26179 11.45331 4919 ft 305 kts 52°
2026-04-18 20:08 47.26750 11.46267 5030 ft 291 kts 39°